Ourzdine, Morocco

6:39 AM WET on May 23, 2017 (GMT +0000)
Ourzdine

Weather History for 60230 - January, 2014

Change the Weather History Date:

Thursday, January 9, 2014

  Actual Average Record
Temperature  
Mean Temperature 64 °F -  
Max Temperature 77 °F 64 °F - ()
Min Temperature 50 °F 43 °F - ()
Degree Days  
Heating Degree Days 2    
Growing Degree Days 14 (Base 50)    
Moisture  
Dew Point 30 °F    
Average Humidity 33    
Maximum Humidity 50    
Minimum Humidity 6    
Precipitation  
Precipitation 0.00 in 0.04 in - ()
Sea Level Pressure  
Sea Level Pressure 29.93 in    
Wind  
Wind Speed 4 mph ()    
Max Wind Speed 16 mph    
Max Gust Speed -    
Visibility 5.7 miles    
Events      
T = Trace of Precipitation, MM = Missing Value Source: Averaged Metar Reports

Daily Weather History Graph

Daily Weather History Graph

Search for Another Location

Airport or City:

Trip Planner

Search our weather history database for the weather conditions in past years. The results will help you decide how hot, cold, wet, or windy it might be!

Date:

Astronomy

Jan. 09, 2014 Rise Set
Actual Time 7:32 AM WET 5:46 PM WET
Civil Twilight 7:06 AM WET 6:12 PM WET
Nautical Twilight 6:36 AM WET 6:42 PM WET
Astronomical Twilight 6:06 AM WET 7:12 PM WET
Moon 12:56 PM WET (1/9) 1:36 AM WET (1/9)
Length of Visible Light 11h 06m
Length of Day
10h 13m
Waxing Gibbous, 64% of the Moon is Illuminated
Jan 9
Waxing Gibbous
Jan 16
Full
Jan 24
Last Quarter
Jan 30
New
Feb 6
First Quarter

Hourly Weather History & Observations

Time (WET) Temp. Dew Point Humidity Pressure Visibility Wind Dir Wind Speed Gust Speed Precip Events Conditions
12:00 AM 56 °F 32 °F 28% 30.00 in 6 mi East 2.3 mph - -   Clear
12:00 AM 55.4 °F 32.0 °F 41% 30.01 in - East 2.3 mph - N/A   Clear
12:30 AM 53.6 °F 32.0 °F 44% 30.01 in 5.6 mi ENE 3.5 mph - N/A   Unknown
1:00 AM 53.6 °F 32.0 °F 44% 29.98 in - ESE 5.8 mph - N/A   Clear
1:30 AM 55.4 °F 32.0 °F 41% 29.98 in - SSE 3.5 mph - N/A   Clear
2:00 AM 53.6 °F 32.0 °F 44% 29.98 in - SSE 3.5 mph - N/A   Clear
2:30 AM 53.6 °F 30.2 °F 41% 29.98 in - South 3.5 mph - N/A   Clear
3:00 AM 54 °F 30 °F 28% 29.99 in 6 mi SSE 4.6 mph - -   Clear
3:00 AM 53.6 °F 30.2 °F 41% 29.98 in - SSE 3.5 mph - N/A   Clear
3:30 AM 50.0 °F 32.0 °F 50% 29.98 in - East 4.6 mph - N/A   Clear
4:00 AM 53.6 °F 32.0 °F 44% 29.98 in - ESE 3.5 mph - N/A   Clear
4:30 AM 51.8 °F 32.0 °F 47% 29.98 in - East 4.6 mph - N/A   Clear
5:00 AM 51.8 °F 32.0 °F 47% 29.98 in - Variable 2.3 mph - N/A   Clear
5:30 AM 50.0 °F 32.0 °F 50% 29.95 in - ENE 3.5 mph - N/A   Clear
6:00 AM 50 °F 32 °F 38% 29.97 in 6 mi ESE 3.5 mph - -   Clear
6:00 AM 50.0 °F 32.0 °F 50% 29.95 in - ESE 2.3 mph - N/A   Clear
2:00 PM 77.0 °F 28.4 °F 17% 29.89 in - East 2.3 mph - N/A   Clear
3:00 PM 77 °F 22 °F 6% 29.80 in 6 mi East 2.3 mph - -   Scattered Clouds
3:00 PM 77.0 °F 23.0 °F 13% 29.89 in - East 2.3 mph - N/A   Clear
4:00 PM 77.0 °F 24.8 °F 14% 29.86 in - NNW 5.8 mph - N/A   Clear
5:00 PM 77.0 °F 28.4 °F 17% 29.86 in - NW 4.6 mph - N/A   Clear
6:00 PM 74 °F 30 °F 11% 29.78 in 6 mi WNW 6.9 mph - -   Partly Cloudy
6:00 PM 75.2 °F 30.2 °F 19% 29.86 in 6.2 mi WNW 6.9 mph - N/A   Scattered Clouds
7:00 PM 69.8 °F 26.6 °F 20% 29.83 in 5.0 mi SW 16.1 mph - N/A   Scattered Clouds
9:00 PM 68.0 °F 30.2 °F 24% 29.89 in 5.0 mi SW 8.1 mph - N/A   Scattered Clouds
10:00 PM 66.2 °F 30.2 °F 26% 29.89 in 5.0 mi ESE 4.6 mph - N/A   Scattered Clouds